FW2000 Weather Reports


Display with metric or nautical units.
time (UTC)temp
F
wind
direction
speed
MPH
gust
MPH
rain 1hr
in
rain 24hr
in
rain mn
in
humidity
%
barometer
mb
20260503000510 75 215 1.0 8.0 0.00 0.00 0.00 52 1010.0
20260503000014 74 213 3.0 8.0 0.00 0.00 0.00 52 1010.0
20260502235509 74 242 2.0 10.0 0.00 0.00 0.00 52 1010.1
20260502235011 74 182 2.0 10.0 0.00 0.00 0.00 52 1010.0
20260502234510 74 205 3.0 8.0 0.00 0.00 0.00 50 1010.0
20260502234008 75 197 4.0 8.0 0.00 0.00 0.00 52 1010.0
20260502233507 75 240 1.0 7.0 0.00 0.00 0.00 56 1010.0
20260502233015 75 223 4.0 9.0 0.00 0.00 0.00 55 1010.1
20260502232507 74 226 5.0 9.0 0.00 0.00 0.00 54 1010.1
20260502232005 74 240 5.0 8.0 0.00 0.00 0.00 52 1010.2
20260502231510 74 194 3.0 10.0 0.00 0.00 0.00 54 1010.2
20260502231004 74 92 2.0 10.0 0.00 0.00 0.00 51 1010.3
20260502230503 74 198 5.0 9.0 0.00 0.00 0.00 53 1010.5
20260502230003 74 168 4.0 9.0 0.00 0.00 0.00 51 1010.5
20260502225504 74 196 2.0 10.0 0.00 0.00 0.00 47 1010.6
20260502225002 74 131 5.0 12.0 0.00 0.00 0.00 44 1010.6
20260502224502 75 163 3.0 10.0 0.00 0.00 0.00 46 1010.6
20260502224001 75 168 7.0 11.0 0.00 0.00 0.00 47 1010.7
20260502223602 76 191 4.0 9.0 0.00 0.00 0.00 44 1010.8
20260502223100 76 196 2.0 11.0 0.00 0.00 0.00 45 1010.8
20260502222602 76 186 7.0 11.0 0.00 0.00 0.00 43 1010.9
20260502222058 77 118 1.0 10.0 0.00 0.00 0.00 44 1010.9
20260502221558 77 143 4.0 13.0 0.00 0.00 0.00 40 1010.9
20260502221100 77 117 6.0 13.0 0.00 0.00 0.00 41 1011.0
20260502220557 76 93 3.0 10.0 0.00 0.00 0.00 42 1011.1
20260502220056 76 40 3.0 10.0 0.00 0.00 0.00 47 1011.2
20260502215556 74 169 5.0 10.0 0.00 0.00 0.00 47 1011.3
20260502215054 74 136 8.0 10.0 0.00 0.00 0.00 46 1011.4
20260502214615 74 167 1.0 12.0 0.00 0.00 0.00 50 1011.4
20260502214054 74 117 7.0 12.0 0.00 0.00 0.00 49 1011.7
20260502213553 75 172 4.0 12.0 0.00 0.00 0.00 44 1011.7
20260502213055 74 144 2.0 11.0 0.00 0.00 0.00 44 1011.7
20260502212552 74 177 6.0 11.0 0.00 0.00 0.00 47 1011.7
20260502212052 75 148 1.0 8.0 0.00 0.00 0.00 48 1011.8
20260502211602 74 122 1.0 9.0 0.00 0.00 0.00 47 1011.8
20260502211051 74 145 3.0 11.0 0.00 0.00 0.00 49 1011.8
20260502210551 74 155 5.0 11.0 0.00 0.00 0.00 47 1011.9
20260502210054 74 190 1.0 15.0 0.00 0.00 0.00 49 1011.9
20260502205551 74 178 5.0 15.0 0.00 0.00 0.00 49 1011.8
20260502205051 74 121 3.0 13.0 0.00 0.00 0.00 47 1012.0
20260502204551 74 184 6.0 10.0 0.00 0.00 0.00 49 1012.0
20260502204051 74 190 3.0 12.0 0.00 0.00 0.00 49 1011.9
20260502203551 74 88 3.0 8.0 0.00 0.00 0.00 47 1012.0
20260502203104 73 186 3.0 10.0 0.00 0.00 0.00 51 1012.0
20260502202550 73 171 4.0 10.0 0.00 0.00 0.00 48 1012.0
20260502202049 73 167 4.0 12.0 0.00 0.00 0.00 50 1012.0
20260502201649 73 182 6.0 12.0 0.00 0.00 0.00 46 1012.0
20260502201049 75 202 5.0 13.0 0.00 0.00 0.00 46 1012.0
20260502200549 76 150 6.0 11.0 0.00 0.00 0.00 45 1012.1
20260502200049 76 166 3.0 11.0 0.00 0.00 0.00 47 1012.0
20260502195549 76 155 5.0 11.0 0.00 0.00 0.00 44 1012.1
20260502195047 76 148 2.0 10.0 0.00 0.00 0.00 49 1012.1
20260502194550 76 142 5.0 13.0 0.00 0.00 0.00 45 1012.1
20260502194047 76 170 4.0 13.0 0.00 0.00 0.00 43 1012.1
20260502193545 76 132 3.0 16.0 0.00 0.00 0.00 41 1012.2
20260502193049 76 113 4.0 14.0 0.00 0.00 0.00 45 1012.3
20260502192545 75 91 5.0 15.0 0.00 0.00 0.00 43 1012.3
20260502192043 75 143 7.0 15.0 0.00 0.00 0.00 41 1012.3
20260502191543 76 173 5.0 15.0 0.00 0.00 0.00 45 1012.3
20260502191042 75 123 5.0 15.0 0.00 0.00 0.00 46 1012.4
20260502190541 75 167 5.0 15.0 0.00 0.00 0.00 45 1012.5
20260502190041 75 171 5.0 11.0 0.00 0.00 0.00 46 1012.5
20260502185540 75 122 5.0 11.0 0.00 0.00 0.00 48 1012.5
20260502185040 75 150 3.0 11.0 0.00 0.00 0.00 47 1012.5
20260502184540 74 151 3.0 11.0 0.00 0.00 0.00 49 1012.6
20260502184040 75 175 4.0 11.0 0.00 0.00 0.00 45 1012.6
20260502183539 75 159 3.0 10.0 0.00 0.00 0.00 49 1012.6
20260502183039 75 125 2.0 11.0 0.00 0.00 0.00 51 1012.6
20260502182539 75 161 5.0 11.0 0.00 0.00 0.00 48 1012.7
20260502182037 75 123 3.0 11.0 0.00 0.00 0.00 49 1012.6
20260502181538 75 94 3.0 14.0 0.00 0.00 0.00 50 1012.7
20260502181041 75 115 7.0 14.0 0.00 0.00 0.00 47 1012.6
20260502180537 75 182 2.0 10.0 0.00 0.00 0.00 49 1012.6
20260502164023 72 65 2.0 6.0 0.00 0.00 0.00 52 1012.6
20260502163522 71 58 2.0 6.0 0.00 0.00 0.00 50 1012.6
20260502163029 71 74 1.0 7.0 0.00 0.00 0.00 51 1012.5
20260502162520 71 74 3.0 7.0 0.00 0.00 0.00 49 1012.6
20260502162018 71 71 3.0 6.0 0.00 0.00 0.00 50 1012.5
20260502161517 70 130 3.0 5.0 0.00 0.00 0.00 50 1012.6
20260502161016 70 109 2.0 7.0 0.00 0.00 0.00 51 1012.5
20260502160515 70 97 2.0 7.0 0.00 0.00 0.00 51 1012.5
20260502152005 67 74 0.0 3.0 0.00 0.00 0.00 58 1012.5
20260502151503 66 97 0.0 3.0 0.00 0.00 0.00 58 1012.5
20260502151002 66 101 0.0 4.0 0.00 0.00 0.00 57 1012.6
20260502150501 66 100 0.0 4.0 0.00 0.00 0.00 57 1012.6
20260502130535 61 81 5.0 11.0 0.00 0.00 0.00 60 1011.8
20260502123531 60 59 4.0 9.0 0.00 0.00 0.00 61 1011.8
20260502123036 61 67 3.0 11.0 0.00 0.00 0.00 61 1011.7
20260502122530 61 91 3.0 11.0 0.00 0.00 0.00 60 1011.8
20260502122029 60 65 5.0 9.0 0.00 0.00 0.00 60 1011.8
20260502121532 60 71 3.0 9.0 0.00 0.00 0.00 61 1012.0
20260502121028 60 71 3.0 9.0 0.00 0.00 0.00 61 1011.9
20260502120528 60 63 2.0 9.0 0.00 0.00 0.00 62 1011.9
20260502115525 60 82 3.0 7.0 0.00 0.00 0.00 62 1011.9
20260502115026 60 78 4.0 9.0 0.00 0.00 0.00 62 1012.0
20260502114534 60 64 3.0 9.0 0.00 0.00 0.00 63 1011.9
20260502114025 60 71 3.0 10.0 0.00 0.00 0.00 63 1012.0
20260502113525 60 86 5.0 10.0 0.00 0.00 0.00 63 1012.1
20260502113028 60 80 4.0 10.0 0.00 0.00 0.00 63 1012.1
20260502112523 60 74 5.0 10.0 0.00 0.00 0.00 64 1012.1
20260502112021 60 85 4.0 10.0 0.00 0.00 0.00 64 1012.1
20260502111521 60 67 3.0 9.0 0.00 0.00 0.00 65 1012.1
20260502111020 60 75 4.0 8.0 0.00 0.00 0.00 65 1012.1
20260502110520 59 73 3.0 8.0 0.00 0.00 0.00 66 1012.1
20260502110020 59 97 1.0 8.0 0.00 0.00 0.00 66 1012.1
20260502105519 59 93 2.0 7.0 0.00 0.00 0.00 66 1012.2
20260502105019 60 100 1.0 4.0 0.00 0.00 0.00 65 1012.3
20260502104521 60 102 1.0 7.0 0.00 0.00 0.00 65 1012.3
20260502104018 60 80 1.0 4.0 0.00 0.00 0.00 65 1012.3
20260502103521 60 86 2.0 6.0 0.00 0.00 0.00 65 1012.3
20260502103018 60 84 1.0 6.0 0.00 0.00 0.00 65 1012.3
20260502102518 60 94 1.0 3.0 0.00 0.00 0.00 66 1012.2
20260502102017 60 123 1.0 3.0 0.00 0.00 0.00 65 1012.2
20260502101516 60 108 1.0 8.0 0.00 0.00 0.00 65 1012.2
20260502101017 60 103 2.0 8.0 0.00 0.00 0.00 65 1012.2
20260502100516 60 92 2.0 4.0 0.00 0.00 0.00 66 1012.1
20260502091510 59 82 2.0 6.0 0.00 0.00 0.00 67 1012.6
20260502091010 59 76 3.0 6.0 0.00 0.00 0.00 67 1012.5
20260502090510 59 76 2.0 6.0 0.00 0.00 0.00 67 1012.6
20260502071050 61 115 2.0 6.0 0.00 0.00 0.00 68 1013.2
20260502070549 61 128 1.0 6.0 0.00 0.00 0.00 68 1013.2
20260502070058 61 90 1.0 6.0 0.00 0.00 0.00 69 1013.2
20260502065548 61 88 1.0 6.0 0.00 0.00 0.00 69 1013.2
20260502065047 61 90 1.0 6.0 0.00 0.00 0.00 69 1013.2
20260502064613 61 114 1.0 4.0 0.00 0.00 0.00 70 1013.2
20260502064047 61 79 1.0 6.0 0.00 0.00 0.00 70 1013.2
20260502063547 61 86 1.0 6.0 0.00 0.00 0.00 69 1013.3
20260502063059 61 98 1.0 6.0 0.00 0.00 0.00 70 1013.2
20260502062547 61 86 1.0 5.0 0.00 0.00 0.00 70 1013.3
20260502062047 61 85 3.0 5.0 0.00 0.00 0.00 70 1013.3
20260502061546 62 70 3.0 5.0 0.00 0.00 0.00 71 1013.3
20260502061045 62 86 2.0 5.0 0.00 0.00 0.00 71 1013.2
20260502060549 62 88 2.0 4.0 0.00 0.00 0.00 71 1013.2
20260502060048 62 84 2.0 6.0 0.00 0.00 0.00 70 1013.3
20260502055548 62 78 2.0 7.0 0.00 0.00 0.00 70 1013.4
20260502055045 63 92 2.0 6.0 0.00 0.00 0.00 69 1013.4
20260502054545 63 100 1.0 4.0 0.00 0.00 0.00 69 1013.4
20260502054044 63 94 0.0 2.0 0.00 0.00 0.00 69 1013.5
20260502053544 63 90 1.0 2.0 0.00 0.00 0.00 69 1013.5
20260502053049 63 86 0.0 0.0 0.00 0.00 0.00 68 1013.4
20260502052544 63 88 0.0 0.0 0.00 0.00 0.00 68 1013.4
20260502052043 64 38 0.0 0.0 0.00 0.00 0.00 68 1013.4
20260502051542 64 30 0.0 0.0 0.00 0.00 0.00 68 1013.4
20260502051046 64 288 0.0 0.0 0.00 0.00 0.00 68 1013.4
20260502050543 64 277 0.0 0.0 0.00 0.00 0.00 68 1013.5
20260502050046 64 275 0.0 0.0 0.00 0.00 0.00 67 1013.5
20260502045544 64 275 0.0 0.0 0.00 0.00 0.00 67 1013.5
20260502045043 64 275 0.0 0.0 0.00 0.00 0.00 67 1013.5
20260502044543 64 275 0.0 0.0 0.00 0.00 0.00 67 1013.5
20260502044042 64 275 0.0 0.0 0.00 0.00 0.00 66 1013.4
20260502043542 65 275 0.0 0.0 0.00 0.00 0.00 66 1013.4
20260502043110 65 275 0.0 0.0 0.00 0.00 0.00 65 1013.4
20260502042542 65 275 0.0 0.0 0.00 0.00 0.00 65 1013.4
20260502042042 65 275 0.0 0.0 0.00 0.00 0.00 65 1013.3
20260502041550 65 273 0.0 0.0 0.00 0.00 0.00 65 1013.3
20260502041043 65 269 0.0 0.0 0.00 0.00 0.00 65 1013.3
20260502040542 65 269 0.0 0.0 0.00 0.00 0.00 64 1013.1
20260502040042 65 263 0.0 0.0 0.00 0.00 0.00 63 1013.1
20260502035541 65 262 0.0 0.0 0.00 0.00 0.00 63 1013.0
20260502035041 65 257 0.0 0.0 0.00 0.00 0.00 63 1013.0
20260502034541 66 257 0.0 0.0 0.00 0.00 0.00 63 1013.0
20260502034041 66 250 0.0 0.0 0.00 0.00 0.00 64 1013.0
20260502033540 66 250 0.0 0.0 0.00 0.00 0.00 64 1012.9
20260502033040 66 250 0.0 0.0 0.00 0.00 0.00 63 1012.8
20260502032540 66 250 0.0 0.0 0.00 0.00 0.00 64 1012.7
20260502032043 66 250 0.0 2.0 0.00 0.00 0.00 63 1012.7
20260502031539 67 249 0.0 2.0 0.00 0.00 0.00 63 1012.7
20260502031039 67 249 1.0 2.0 0.00 0.00 0.00 62 1012.6
20260502030539 67 249 1.0 2.0 0.00 0.00 0.00 61 1012.6
20260502030045 67 249 0.0 2.0 0.00 0.00 0.00 61 1012.6
20260502025538 68 248 0.0 2.0 0.00 0.00 0.00 60 1012.6
20260502025038 68 248 1.0 2.0 0.00 0.00 0.00 59 1012.6
20260502024538 68 248 0.0 1.0 0.00 0.00 0.00 59 1012.6
20260502024042 69 248 0.0 1.0 0.00 0.00 0.00 59 1012.5
20260502023541 69 248 0.0 1.0 0.00 0.00 0.00 58 1012.4
20260502023038 69 248 0.0 2.0 0.00 0.00 0.00 57 1012.4
20260502022538 69 245 0.0 2.0 0.00 0.00 0.00 57 1012.4
20260502022037 70 245 0.0 1.0 0.00 0.00 0.00 58 1012.3
20260502021537 70 245 0.0 2.0 0.00 0.00 0.00 57 1012.4
20260502021040 70 244 0.0 2.0 0.00 0.00 0.00 56 1012.4
20260502020539 70 244 0.0 3.0 0.00 0.00 0.00 56 1012.4
20260502020037 70 244 1.0 3.0 0.00 0.00 0.00 56 1012.4
20260502015536 70 254 0.0 3.0 0.00 0.00 0.00 55 1012.5
20260502015036 71 285 0.0 3.0 0.00 0.00 0.00 56 1012.5
20260502014536 71 288 0.0 3.0 0.00 0.00 0.00 56 1012.5
20260502014035 71 290 0.0 3.0 0.00 0.00 0.00 56 1012.5
20260502013535 71 241 0.0 3.0 0.00 0.00 0.00 54 1012.5
20260502013035 71 240 0.0 3.0 0.00 0.00 0.00 53 1012.6
20260502012534 72 257 1.0 3.0 0.00 0.00 0.00 53 1012.6
20260502012034 72 249 1.0 4.0 0.00 0.00 0.00 52 1012.6
20260502011533 72 236 1.0 4.0 0.00 0.00 0.00 52 1012.6
20260502011033 72 248 1.0 3.0 0.00 0.00 0.00 54 1012.6
20260502010532 72 266 1.0 3.0 0.00 0.00 0.00 54 1012.7
20260502010032 72 291 0.0 3.0 0.00 0.00 0.00 56 1012.9
20260502005531 72 296 0.0 5.0 0.00 0.00 0.00 54 1012.9
20260502005032 72 291 0.0 2.0 0.00 0.00 0.00 54 1013.0
20260502004539 73 234 0.0 3.0 0.00 0.00 0.00 52 1013.0
20260502004030 73 292 1.0 4.0 0.00 0.00 0.00 53 1013.0
20260502003531 73 283 2.0 5.0 0.00 0.00 0.00 53 1013.0
20260502003030 73 286 3.0 7.0 0.00 0.00 0.00 52 1013.0
20260502002530 73 300 2.0 7.0 0.00 0.00 0.00 52 1013.0
20260502002030 73 289 3.0 7.0 0.00 0.00 0.00 50 1013.0
20260502001530 73 299 3.0 8.0 0.00 0.00 0.00 50 1013.0
20260502001030 73 295 3.0 8.0 0.00 0.00 0.00 51 1013.0